Belle Chasse, LA

8:20 PM CST on December 03, 2016 (GMT -0600)
New Orleans Naval Air Station

Weather History for KNBG - March, 2013

Change the Weather History Date:

Wednesday, March 27, 2013

  Actual Average Record
Temperature  
Mean Temperature 50 °F -  
Max Temperature 61 °F 71 °F 82 °F (2011)
Min Temperature 40 °F 54 °F 40 °F (2013)
Degree Days  
Heating Degree Days 14    
Moisture  
Dew Point 34 °F    
Average Humidity 47    
Maximum Humidity 60    
Minimum Humidity 31    
Precipitation  
Precipitation 0.00 in - - ()
Sea Level Pressure  
Sea Level Pressure 30.38 in    
Wind  
Wind Speed 7 mph (East)    
Max Wind Speed 9 mph    
Max Gust Speed -    
Visibility 10 miles    
Events      
Averages and records for this station are not official NWS values.
T = Trace of Precipitation, MM = Missing Value Source: NWS Daily Summary

Daily Weather History Graph

Daily Weather History Graph

Search for Another Location

Airport or City:

Trip Planner

Search our weather history database for the weather conditions in past years. The results will help you decide how hot, cold, wet, or windy it might be!

Date:

Astronomy

Mar. 27, 2013 Rise Set
Actual Time 6:55 AM CDT 7:15 PM CDT
Civil Twilight 6:31 AM CDT 7:39 PM CDT
Nautical Twilight 6:03 AM CDT 8:07 PM CDT
Astronomical Twilight 5:35 AM CDT 8:36 PM CDT
Moon 7:53 PM CDT (3/27) 6:49 AM CDT (3/27)
Length of Visible Light 13h 08m
Length of Day
12h 20m
Full, 100% of the Moon is Illuminated
Mar 27
Full
Apr 2
Last Quarter
Apr 10
New
Apr 18
First Quarter
Apr 25
Full

Hourly Weather History & Observations

Time (CDT) Temp. Windchill Dew Point Humidity Pressure Visibility Wind Dir Wind Speed Gust Speed Precip Events Conditions
1:55 AM - - - N/A% 30.40 in - North - - N/A   Unknown
2:55 AM - - - N/A% 30.40 in - North - - N/A   Unknown
3:55 AM - - - N/A% 30.38 in - North - - N/A   Unknown
5:55 AM - - - N/A% 30.40 in - North - - N/A   Unknown
6:11 AM 41.0 °F 36.4 °F 26.6 °F 57% 30.41 in - Variable 6.9 mph - N/A   Clear
6:55 AM 40.6 °F 36.0 °F 25.7 °F 55% 30.40 in 10.0 mi Variable 6.9 mph - N/A   Scattered Clouds
7:55 AM 42.4 °F 38.1 °F 29.3 °F 60% 30.43 in 10.0 mi Variable 6.9 mph - N/A   Scattered Clouds
8:55 AM 46.4 °F 42.4 °F 31.1 °F 55% 30.45 in 10.0 mi East 8.1 mph - N/A   Partly Cloudy
9:55 AM 53.6 °F - 31.1 °F 42% 30.45 in 10.0 mi ESE 9.2 mph - N/A   Scattered Clouds
10:55 AM 54.3 °F - 35.4 °F 49% 30.46 in 10.0 mi ESE 9.2 mph - N/A   Scattered Clouds
11:55 AM 58.1 °F - 34.7 °F 41% 30.45 in 10.0 mi Variable 6.9 mph - N/A   Scattered Clouds
12:55 PM 61.7 °F - 34.9 °F 37% 30.42 in 10.0 mi Variable 6.9 mph - N/A   Scattered Clouds
1:55 PM 60.1 °F - 29.1 °F 31% 30.39 in 10.0 mi NE 5.8 mph - N/A   Partly Cloudy
2:55 PM 61.2 °F - 33.8 °F 36% 30.36 in 10.0 mi Variable 3.5 mph - N/A   Partly Cloudy
3:55 PM 61.7 °F - 36.0 °F 38% 30.33 in 10.0 mi ENE 5.8 mph - N/A   Partly Cloudy
4:55 PM 61.7 °F - 37.4 °F 41% 30.33 in 10.0 mi East 6.9 mph - N/A   Partly Cloudy
5:55 PM 59.9 °F - 36.0 °F 41% 30.32 in 10.0 mi ENE 5.8 mph - N/A   Clear
6:55 PM 59.5 °F - 37.9 °F 45% 30.32 in 10.0 mi ENE 4.6 mph - N/A   Partly Cloudy
7:55 PM 54.5 °F - 39.6 °F 57% 30.32 in 10.0 mi SE 4.6 mph - N/A   Partly Cloudy
8:55 PM 55.4 °F - 39.9 °F 56% 30.31 in 10.0 mi SSE 5.8 mph - N/A   Partly Cloudy
9:55 PM 54.3 °F - 40.3 °F 59% 30.34 in 10.0 mi SSE 6.9 mph - N/A   Partly Cloudy